Orbital Elements at Epoch 2459200.5 (2020-Dec-17.0) TDB
Reference: JPL 35 (heliocentric ecliptic J2000)
Element | Value | Uncertainty (1-sigma) | Units |
e | .1569446312812975 | 2.8448e-08 | |
a | 2.761966314406788 | 1.2635e-08 | au |
q | 2.32849052958085 | 7.6991e-08 | au |
i | 9.338591025063549 | 7.2923e-07 | deg |
node | 7.999699783797267 | 1.9214e-06 | deg |
peri | 324.9862170518563 | 5.4411e-06 | deg |
M | 151.4727068209306 | 6.2311e-06 | deg |
tp | 2458495.063578023732 (2019-Jan-11.56357802) | 2.5528e-05 | TDB |
period | 1676.586609174958 4.59 | 1.1505e-05 3.15e-08 | d yr |
n | .2147219821689705 | 1.4734e-09 | deg/d |
Q | 3.195442099232726 | 1.4618e-08 | au |
|
| | Orbit Determination Parameters
Additional Information
|